Falls City, NE

3:07 AM CST on December 15, 2017 (GMT -0600)
Brenner

Weather History for KFNB - October, 2013

Change the Weather History Date:

Tuesday, October 15, 2013

  Actual Average Record
Temperature  
Mean Temperature 53 °F -  
Max Temperature 62 °F 70 °F 88 °F (1999)
Min Temperature 44 °F 43 °F 29 °F (1986)
Degree Days  
Heating Degree Days 12    
Growing Degree Days 3 (Base 50)    
Moisture  
Dew Point 42 °F    
Average Humidity 71    
Maximum Humidity 94    
Minimum Humidity 51    
Precipitation  
Precipitation 0.00 in - - ()
Sea Level Pressure  
Sea Level Pressure 29.96 in    
Wind  
Wind Speed 13 mph (WNW)    
Max Wind Speed 23 mph    
Max Gust Speed 31 mph    
Visibility 10 miles    
Events Rain    
Averages and records for this station are not official NWS values.
T = Trace of Precipitation, MM = Missing Value Source: NWS Daily Summary

Daily Weather History Graph

Daily Weather History Graph

Search for Another Location

Airport or City:

Trip Planner

Search our weather history database for the weather conditions in past years. The results will help you decide how hot, cold, wet, or windy it might be!

Date:

Astronomy

Oct. 15, 2013 Rise Set
Actual Time 7:33 AM CDT 6:42 PM CDT
Civil Twilight 7:05 AM CDT 7:09 PM CDT
Nautical Twilight 6:34 AM CDT 7:41 PM CDT
Astronomical Twilight 6:02 AM CDT 8:12 PM CDT
Moon 4:48 PM CDT 3:56 AM CDT
Length of Visible Light 12h 03m
Length of Day
11h 09m
Waxing Gibbous, 88% of the Moon is Illuminated
Oct 15
Waxing Gibbous
Oct 18
Full
Oct 26
Last Quarter
Nov 3
New
Nov 9
First Quarter

Hourly Weather History & Observations

Time (CDT) Temp. Windchill Dew Point Humidity Pressure Visibility Wind Dir Wind Speed Gust Speed Precip Events Conditions
12:30 AM 62.6 °F - 60.8 °F 94% 29.81 in 10.0 mi SSW 9.2 mph - 0.00 in Rain Light Rain
12:53 AM 62.1 °F - 60.1 °F 93% 29.81 in 10.0 mi SW 10.4 mph - 0.00 in   Overcast
1:21 AM 57.2 °F - 50.0 °F 77% 29.85 in 10.0 mi WNW 16.1 mph 26.5 mph N/A   Overcast
1:30 AM 55.4 °F - 50.0 °F 82% 29.85 in 10.0 mi WNW 16.1 mph - N/A   Mostly Cloudy
1:53 AM 55.9 °F - 48.9 °F 77% 29.84 in 10.0 mi WNW 15.0 mph - N/A   Clear
2:53 AM 53.1 °F - 46.0 °F 77% 29.88 in 10.0 mi West 17.3 mph 26.5 mph N/A   Scattered Clouds
3:02 AM 53.6 °F - 46.4 °F 77% 29.89 in 10.0 mi West 13.8 mph - N/A   Mostly Cloudy
3:20 AM 51.8 °F - 44.6 °F 76% 29.89 in 10.0 mi West 15.0 mph 24.2 mph N/A   Scattered Clouds
3:53 AM 50.0 °F - 44.1 °F 80% 29.89 in 10.0 mi WNW 10.4 mph - N/A   Clear
4:53 AM 48.9 °F - 43.0 °F 80% 29.92 in 10.0 mi West 9.2 mph - N/A   Mostly Cloudy
5:53 AM 48.9 °F - 43.0 °F 80% 29.92 in 10.0 mi West 10.4 mph 17.3 mph N/A   Overcast
6:48 AM 46.4 °F 42.4 °F 41.0 °F 81% 29.94 in 10.0 mi WSW 8.1 mph - N/A   Scattered Clouds
6:53 AM 45.0 °F 40.6 °F 39.9 °F 82% 29.94 in 10.0 mi WSW 8.1 mph - N/A   Partly Cloudy
7:53 AM 44.1 °F 38.6 °F 39.9 °F 85% 29.95 in 10.0 mi West 10.4 mph - N/A   Clear
8:53 AM 46.9 °F - 39.9 °F 77% 29.96 in 10.0 mi West 12.7 mph - N/A   Clear
9:53 AM 50.0 °F - 37.9 °F 63% 29.98 in 10.0 mi WNW 23.0 mph 28.8 mph N/A   Clear
10:53 AM 52.0 °F - 39.0 °F 61% 29.99 in 10.0 mi WNW 21.9 mph 27.6 mph N/A   Clear
11:53 AM 53.1 °F - 37.9 °F 57% 29.99 in 10.0 mi WNW 21.9 mph 29.9 mph N/A   Clear
12:53 PM 55.0 °F - 37.9 °F 53% 29.99 in 10.0 mi NW 17.3 mph 31.1 mph N/A   Clear
1:53 PM 57.0 °F - 39.0 °F 51% 29.99 in 10.0 mi West 18.4 mph 27.6 mph N/A   Scattered Clouds
2:53 PM 55.9 °F - 37.9 °F 51% 29.99 in 10.0 mi WNW 17.3 mph 27.6 mph N/A   Partly Cloudy
3:53 PM 55.0 °F - 37.9 °F 53% 30.00 in 10.0 mi WNW 17.3 mph 28.8 mph N/A   Overcast
4:53 PM 53.1 °F - 37.9 °F 57% 30.01 in 10.0 mi WNW 17.3 mph 26.5 mph N/A   Overcast
5:53 PM 52.0 °F - 37.9 °F 59% 30.02 in 10.0 mi WNW 13.8 mph - N/A   Overcast
6:53 PM 50.0 °F - 37.9 °F 63% 30.04 in 10.0 mi NW 8.1 mph - N/A   Overcast
7:53 PM 50.0 °F - 39.0 °F 66% 30.07 in 10.0 mi NW 6.9 mph - N/A   Overcast
8:53 PM 48.9 °F - 39.0 °F 69% 30.08 in 10.0 mi WNW 8.1 mph 16.1 mph N/A   Overcast
9:53 PM 48.9 °F - 37.9 °F 66% 30.08 in 10.0 mi NW 12.7 mph - N/A   Overcast
10:53 PM 48.9 °F - 37.9 °F 66% 30.09 in 10.0 mi WNW 9.2 mph - N/A   Overcast
11:53 PM 48.0 °F - 37.9 °F 68% 30.09 in 10.0 mi WNW 10.4 mph - N/A   Overcast